Alma, MI

4:37 AM EST on February 11, 2016 (GMT -0500)
Gratiot Community

Weather History for KAMN - April, 2014

Change the Weather History Date:

Monday, April 21, 2014

  Actual Average Record
Temperature  
Mean Temperature 64 °F -  
Max Temperature 77 °F 61 °F 85 °F (1985)
Min Temperature 52 °F 40 °F 24 °F (1953)
Growing Degree Days 14 (Base 50)    
Moisture  
Dew Point 42 °F    
Average Humidity 49    
Maximum Humidity 94    
Minimum Humidity 28    
Precipitation  
Precipitation 0.00 in - - ()
Sea Level Pressure  
Sea Level Pressure 29.89 in    
Wind  
Wind Speed 7 mph (SW)    
Max Wind Speed 23 mph    
Max Gust Speed 31 mph    
Visibility 9 miles    
Events Rain    
Averages and records for this station are not official NWS values.
T = Trace of Precipitation, MM = Missing Value Source: NWS Daily Summary

Daily Weather History Graph

Daily Weather History Graph

Search for Another Location

Airport or City:

Trip Planner

Search our weather history database for the weather conditions in past years. The results will help you decide how hot, cold, wet, or windy it might be!

Date:

Astronomy

Apr. 21, 2014 Rise Set
Actual Time 6:46 AM EDT 8:28 PM EDT
Civil Twilight 6:16 AM EDT 8:59 PM EDT
Nautical Twilight 5:39 AM EDT 9:35 PM EDT
Astronomical Twilight 5:00 AM EDT 10:15 PM EDT
Moon 2:00 AM EDT (4/21) 12:10 PM EDT (4/21)
Length of Visible Light 14h 42m
Length of Day
13h 42m
Waning Gibbous, 58% of the Moon is Illuminated
Apr 21
Waning Gibbous
Apr 22
Last Quarter
Apr 29
New
May 6
First Quarter
May 14
Full

Hourly Weather History & Observations

Time (EDT) Temp. Dew Point Humidity Pressure Visibility Wind Dir Wind Speed Gust Speed Precip Events Conditions
12:10 AM 59.7 °F 33.6 °F 37% 30.06 in 10.0 mi South 5.8 mph - N/A   Overcast
12:30 AM 59.9 °F 32.2 °F 35% 30.06 in 10.0 mi South 4.6 mph - N/A   Overcast
12:50 AM 59.0 °F 34.3 °F 40% 30.06 in 10.0 mi South 4.6 mph - N/A   Overcast
1:10 AM 59.0 °F 33.8 °F 39% 30.05 in 10.0 mi South 4.6 mph - N/A   Overcast
1:30 AM 58.3 °F 35.6 °F 43% 30.05 in 10.0 mi South 4.6 mph - N/A   Overcast
1:50 AM 58.1 °F 35.2 °F 42% 30.05 in 10.0 mi South 3.5 mph - N/A   Overcast
2:10 AM 56.8 °F 37.0 °F 48% 30.04 in 10.0 mi South 4.6 mph - N/A   Overcast
2:30 AM 56.5 °F 35.1 °F 45% 30.04 in 10.0 mi South 4.6 mph - N/A   Scattered Clouds
2:51 AM 55.6 °F 34.5 °F 45% 30.03 in 10.0 mi South 5.8 mph - N/A   Clear
3:11 AM 55.0 °F 35.6 °F 48% 30.01 in 10.0 mi South 6.9 mph - N/A   Scattered Clouds
3:31 AM 56.3 °F 34.5 °F 44% 30.01 in 10.0 mi South 6.9 mph - N/A   Mostly Cloudy
3:51 AM 56.5 °F 33.4 °F 42% 30.01 in 10.0 mi South 6.9 mph - N/A   Mostly Cloudy
4:11 AM 56.3 °F 33.8 °F 43% 30.01 in 10.0 mi South 5.8 mph - N/A   Overcast
4:31 AM 55.6 °F 34.5 °F 45% 30.01 in 10.0 mi South 5.8 mph - N/A   Mostly Cloudy
4:51 AM 54.9 °F 34.9 °F 47% 30.01 in 10.0 mi South 5.8 mph - N/A   Mostly Cloudy
5:12 AM 55.0 °F 34.2 °F 45% 30.00 in 10.0 mi South 5.8 mph - N/A   Overcast
5:32 AM 54.9 °F 34.3 °F 46% 29.99 in 10.0 mi South 6.9 mph - N/A   Overcast
5:52 AM 54.9 °F 33.8 °F 45% 29.99 in 10.0 mi South 4.6 mph - N/A   Scattered Clouds
6:12 AM 53.4 °F 35.1 °F 50% 29.99 in 10.0 mi South 4.6 mph - N/A   Clear
6:32 AM 52.9 °F 35.1 °F 51% 29.99 in 10.0 mi South 4.6 mph - N/A   Scattered Clouds
6:52 AM 52.9 °F 35.6 °F 52% 29.98 in 10.0 mi South 6.9 mph - N/A   Scattered Clouds
7:12 AM 54.3 °F 34.9 °F 48% 29.98 in 10.0 mi South 6.9 mph - N/A   Mostly Cloudy
7:33 AM 54.5 °F 35.4 °F 49% 29.97 in 10.0 mi South 6.9 mph - N/A   Scattered Clouds
7:53 AM 55.8 °F 35.2 °F 46% 29.97 in 10.0 mi South 6.9 mph - N/A   Scattered Clouds
8:13 AM 57.2 °F 35.6 °F 44% 29.96 in 10.0 mi SSW 8.1 mph - N/A   Mostly Cloudy
8:33 AM 57.6 °F 35.4 °F 43% 29.96 in 10.0 mi SSW 6.9 mph - N/A   Overcast
8:53 AM 58.1 °F 35.2 °F 42% 29.96 in 10.0 mi SSW 9.2 mph - N/A   Scattered Clouds
9:13 AM 59.5 °F 36.1 °F 42% 29.95 in 10.0 mi SSW 6.9 mph - N/A   Scattered Clouds
9:54 AM 64.4 °F 37.9 °F 38% 29.93 in 10.0 mi SSW 9.2 mph - N/A   Scattered Clouds
10:14 AM 64.9 °F 38.8 °F 38% 29.93 in 10.0 mi SW 9.2 mph - N/A   Scattered Clouds
10:34 AM 68.0 °F 41.0 °F 37% 29.92 in 10.0 mi SW 11.5 mph - N/A   Clear
10:54 AM 69.1 °F 43.7 °F 40% 29.92 in 10.0 mi WSW 9.2 mph 16.1 mph N/A   Clear
11:14 AM 69.8 °F 44.2 °F 40% 29.92 in 10.0 mi West 10.4 mph - N/A   Clear
11:34 AM 70.5 °F 44.8 °F 40% 29.91 in 10.0 mi WSW 8.1 mph - N/A   Clear
11:54 AM 72.0 °F 44.8 °F 38% 29.90 in 10.0 mi SSW 6.9 mph - N/A   Clear
12:14 PM 73.4 °F 45.9 °F 37% 29.90 in 10.0 mi SW 6.9 mph - N/A   Scattered Clouds
12:34 PM 75.4 °F 47.5 °F 37% 29.89 in 10.0 mi WSW 9.2 mph - N/A   Mostly Cloudy
12:54 PM 75.0 °F 46.9 °F 37% 29.88 in 10.0 mi WSW 9.2 mph - N/A   Mostly Cloudy
1:15 PM 75.7 °F 44.8 °F 33% 29.87 in 10.0 mi SW 8.1 mph - N/A   Scattered Clouds
1:30 PM 76.1 °F 44.1 °F 32% 29.86 in 10.0 mi SW 9.2 mph - N/A   Clear
1:50 PM 76.5 °F 43.2 °F 30% 29.85 in 10.0 mi WSW 15.0 mph 18.4 mph N/A   Clear
2:10 PM 77.0 °F 42.6 °F 29% 29.84 in 10.0 mi South 15.0 mph 20.7 mph N/A   Scattered Clouds
2:30 PM 77.9 °F 42.4 °F 28% 29.83 in 10.0 mi SSW 12.7 mph 19.6 mph N/A   Clear
2:50 PM 77.2 °F 42.1 °F 29% 29.82 in 10.0 mi SSW 11.5 mph 20.7 mph N/A   Mostly Cloudy
3:10 PM 76.8 °F 41.7 °F 28% 29.81 in 10.0 mi SSW 9.2 mph 19.6 mph N/A   Mostly Cloudy
3:30 PM 76.5 °F 41.4 °F 28% 29.81 in 10.0 mi SW 11.5 mph - N/A   Mostly Cloudy
3:50 PM 76.5 °F 41.5 °F 29% 29.80 in 10.0 mi SW 9.2 mph 18.4 mph N/A   Mostly Cloudy
4:11 PM 76.5 °F 41.2 °F 28% 29.78 in 10.0 mi SW 15.0 mph 20.7 mph N/A   Scattered Clouds
4:31 PM 76.1 °F 40.6 °F 28% 29.78 in 10.0 mi SW 12.7 mph 23.0 mph N/A   Mostly Cloudy
4:51 PM 75.4 °F 41.5 °F 30% 29.78 in 10.0 mi SW 13.8 mph 21.9 mph N/A   Mostly Cloudy
5:11 PM 72.3 °F 43.2 °F 35% 29.79 in 10.0 mi SW 23.0 mph 31.1 mph N/A   Mostly Cloudy
5:31 PM 70.2 °F 43.5 °F 38% 29.79 in 10.0 mi WSW 12.7 mph 18.4 mph N/A   Mostly Cloudy
5:51 PM 69.3 °F 44.2 °F 40% 29.79 in 10.0 mi WSW 12.7 mph 19.6 mph N/A   Overcast
6:11 PM 67.5 °F 44.6 °F 44% 29.80 in 10.0 mi West 12.7 mph - N/A   Overcast
6:31 PM 67.1 °F 44.4 °F 44% 29.79 in 10.0 mi West 11.5 mph - N/A   Overcast
6:51 PM 67.1 °F 44.4 °F 44% 29.79 in 10.0 mi West 8.1 mph - N/A   Overcast
7:12 PM 64.2 °F 46.9 °F 53% 29.79 in 10.0 mi West 9.2 mph - N/A   Overcast
7:32 PM 61.9 °F 48.9 °F 62% 29.79 in 10.0 mi West 9.2 mph - N/A Rain Light Rain
7:52 PM 59.0 °F 52.5 °F 79% 29.78 in 10.0 mi West 4.6 mph - N/A Rain Rain
8:12 PM 58.3 °F 53.1 °F 83% 29.78 in 7.0 mi West 3.5 mph - N/A Rain Light Rain
8:32 PM 58.1 °F 53.1 °F 83% 29.78 in 7.0 mi WSW 4.6 mph - N/A Rain Light Rain
8:52 PM 57.7 °F 52.9 °F 84% 29.78 in 7.0 mi SW 5.8 mph - N/A Rain Light Rain
9:12 PM 57.2 °F 52.3 °F 84% 29.78 in 7.0 mi SSW 5.8 mph - N/A Rain Light Rain
9:32 PM 57.2 °F 52.2 °F 83% 29.78 in 7.0 mi SW 4.6 mph - N/A   Light Drizzle
9:52 PM 56.5 °F 52.5 °F 87% 29.78 in 7.0 mi SSW 6.9 mph - N/A Rain Light Rain
10:12 PM 56.3 °F 52.9 °F 88% 29.77 in 5.0 mi SSW 5.8 mph - N/A Rain Light Rain
10:32 PM 56.1 °F 53.4 °F 91% 29.77 in 4.0 mi SSW 4.6 mph - N/A Rain Light Rain
10:53 PM 56.1 °F 53.8 °F 92% 29.77 in 4.0 mi SW 4.6 mph - N/A Rain Rain
11:13 PM 56.3 °F 54.0 °F 92% 29.76 in 3.0 mi SW 5.8 mph - N/A Rain Rain
11:33 PM 56.3 °F 54.3 °F 93% 29.75 in 3.0 mi SW 4.6 mph - N/A Rain Rain
11:53 PM 56.3 °F 54.5 °F 94% 29.74 in 2.5 mi SW 5.8 mph - N/A Rain Rain